sat.trackr.live / text

‹ back to catalog

STARLINK-1568

NORAD 46080 · 2020-055BF

PAYLOAD ACTIVE UNKNOWN

§ Identity

Operator
Country
US
Launch date
2020-08-07
Launch site
AFETR
Launch vehicle
Mass (kg)
RCS (m²)

Purposes: comms

External: N2YO · Heavens-Above · Gunter

§ Orbital elements

Epoch: 2026-09-20T03:08:19.734144Z

Period
92.09 min
Inclination
53.0532°
Eccentricity
0.0004317
Mean motion
15.63761162 rev/d
Perigee alt
373.9 km
Apogee alt
379.7 km
Semi-major
6,754.9 km
B*
5.2806e-4
RAAN
173.3118°
Arg perigee
74.3461°
Mean anomaly
285.8029°
Rev number
34,044

§ Raw data

STARLINK-15681 46080U 20055BF  26263.13078396  .00050085  00000+0  52806-3 0  99972 46080  53.0532 173.3118 0004317  74.3461 285.8029 15.63761162340449

JSON: /api/v1/satellites/46080 · /tle

For live sub-satellite position, see the globe view (requires WebGL).

§ Visibility from observer

Set your observer location to see the next 7 days of passes ≥ 10°. The values pass through the URL so the page stays shareable.

No JS? Fill the form by hand. The geolocation button needs JavaScript.